Weather History for KNYL - June, 2014

Change the Weather History Date:

Tuesday, June 24, 2014

  Actual Average Record
Temperature  
Mean Temperature 94 °F 91 °F  
Max Temperature 107 °F 105 °F 120 °F (1957)
Min Temperature 80 °F 77 °F 61 °F (1945)
Degree Days  
Heating Degree Days 0 0  
Month to date heating degree days 0 0  
Since 1 June heating degree days 0 0  
Since 1 July heating degree days 370 686  
Cooling Degree Days 29 26  
Month to date cooling degree days 637 559  
Year to date cooling degree days 1799 1471  
Since 1 June cooling degree days 637 559  
Growing Degree Days 44 (Base 50)    
Moisture  
Dew Point 37 °F    
Average Humidity 19    
Maximum Humidity 29    
Minimum Humidity 8    
Precipitation  
Precipitation 0.00 in 0.00 in 0.01 in (2006)
Month to date precipitation 0.00 0.01  
Year to date precipitation 0.07 1.33  
Sea Level Pressure  
Sea Level Pressure 29.76 in    
Wind  
Wind Speed 10 mph (South)    
Max Wind Speed 17 mph    
Max Gust Speed 22 mph    
Visibility 10 miles    
Events      
T = Trace of Precipitation, MM = Missing Value Source: NWS Daily Summary

Daily Weather History Graph

Daily Weather History Graph

Search for Another Location

Airport or City:

Trip Planner

Search our weather history database for the weather conditions in past years. The results will help you decide how hot, cold, wet, or windy it might be!

Date:

Astronomy

Jun. 24, 2014 Rise Set
Actual Time 5:31 AM MST 7:49 PM MST
Civil Twilight 5:03 AM MST 8:18 PM MST
Nautical Twilight 4:28 AM MST 8:53 PM MST
Astronomical Twilight 3:50 AM MST 9:31 PM MST
Moon 3:35 AM MST (6/24) 5:37 PM MST (6/24)
Length of Visible Light 15h 15m
Length of Day
14h 17m
Waning Crescent, 6% of the Moon is Illuminated
Jun 24
Waning Crescent
Jun 27
New
Jul 5
First Quarter
Jul 12
Full
Jul 18
Last Quarter

Hourly Weather History & Observations

Time (MST) Temp. Dew Point Humidity Pressure Visibility Wind Dir Wind Speed Gust Speed Precip Events Conditions
12:57 AM 84.0 °F 46.0 °F 26% 29.75 in 10.0 mi South 10.4 mph - N/A   Clear
1:57 AM 82.9 °F 34.0 °F 17% 29.75 in 10.0 mi SSE 9.2 mph - N/A   Clear
2:57 AM 84.0 °F 28.9 °F 14% 29.74 in 10.0 mi SSE 9.2 mph - N/A   Clear
3:57 AM 84.0 °F 25.0 °F 12% 29.75 in 10.0 mi SE 8.1 mph - N/A   Clear
4:57 AM 84.9 °F 30.0 °F 14% 29.76 in 10.0 mi SE 5.8 mph - N/A   Clear
5:57 AM 82.9 °F 35.1 °F 18% 29.77 in 9.0 mi SE 4.6 mph - N/A   Scattered Clouds
6:57 AM 80.1 °F 42.1 °F 26% 29.80 in 10.0 mi NNW 3.5 mph - N/A   Scattered Clouds
7:57 AM 87.1 °F 46.0 °F 24% 29.82 in 10.0 mi SSE 12.7 mph - N/A   Scattered Clouds
8:57 AM 90.0 °F 52.0 °F 27% 29.83 in 10.0 mi SSE 13.8 mph - N/A   Scattered Clouds
9:57 AM 95.0 °F 46.9 °F 19% 29.83 in 10.0 mi South 11.5 mph - N/A   Scattered Clouds
10:57 AM 98.1 °F 41.0 °F 14% 29.83 in 10.0 mi SSW 11.5 mph - N/A   Scattered Clouds
11:57 AM 100.9 °F 37.9 °F 11% 29.82 in 10.0 mi South 12.7 mph - N/A   Partly Cloudy
12:57 PM 102.9 °F 37.0 °F 10% 29.80 in 10.0 mi SSE 9.2 mph 17.3 mph N/A   Partly Cloudy
1:57 PM 104.0 °F 37.9 °F 10% 29.78 in 10.0 mi SSW 12.7 mph - N/A   Partly Cloudy
2:57 PM 107.1 °F 34.0 °F 8% 29.75 in 10.0 mi South 15.0 mph 20.7 mph N/A   Partly Cloudy
3:57 PM 107.1 °F 39.9 °F 10% 29.73 in 10.0 mi SSW 13.8 mph - N/A   Clear
4:57 PM 106.0 °F 33.1 °F 8% 29.70 in 10.0 mi South 12.7 mph - N/A   Clear
5:57 PM 105.1 °F 32.0 °F 8% 29.70 in 10.0 mi South 13.8 mph - N/A   Clear
6:57 PM 100.9 °F 32.0 °F 9% 29.70 in 10.0 mi South 11.5 mph - N/A   Clear
7:57 PM 96.1 °F 28.0 °F 9% 29.70 in 10.0 mi SSE 9.2 mph - N/A   Clear
8:57 PM 90.0 °F 39.9 °F 17% 29.71 in 10.0 mi SSW 8.1 mph - N/A   Clear
9:57 PM 87.1 °F 44.1 °F 22% 29.72 in 10.0 mi South 8.1 mph - N/A   Clear
10:57 PM 84.9 °F 37.0 °F 18% 29.72 in 10.0 mi Variable 3.5 mph - N/A   Clear
11:57 PM 84.0 °F 37.9 °F 19% 29.71 in 10.0 mi South 4.6 mph - N/A   Clear